Location: Bli��� Lhota
(48.7570°N, 14.0120°E)
Time: 05:26:16
(UTC+00:00)

SL-16 R/B - Pass Details

Date: 18 September 2020
Orbit: 842 x 847 km, 71.0° (Epoch: 29 October)

Event Time Altitude Azimuth Distance (km) Brightness Sun altitude
Rises 17:36:19 0° 324° (NW) 3,417 6.1 -5.2°
Reaches altitude 10° 17:39:03 10° 313° (NW) 2,476 5.6 -5.6°
Maximum altitude 17:43:50 29° 256° (WSW) 1,514 4.4 -6.4°
Drops below altitude 10° 17:48:35 10° 198° (SSW) 2,458 4.7 -7.2°
Sets 17:51:19 0° 188° (S) 3,387 5.3 -7.6°
